Overview Statistics Trail Chart Weather Telemetry Raw packets
 

This is the latest recevied weather packets stored in our database for station/object KG5CK-1. If no packets are shown the sender has not sent any weather packets the latest 10 day(s).

<< 549 550 551 552 553 554 555 >>
Time Temp. Humidity Pressure Rain* Wind** Luminosity Snow
1787866443 37.22° C 44% 1009.7 hPa 0 mm 0.45 m/s, 52° - -
1787866383 37.22° C 44% 1009.7 hPa 0 mm 0.45 m/s, 52° - -
1787866323 37.22° C 44% 1009.7 hPa 0 mm 0.45 m/s, 52° - -
1787866262 37.22° C 44% 1009.7 hPa 0 mm 0.45 m/s, 52° - -
1787866203 37.22° C 44% 1009.6 hPa 0 mm 0.45 m/s, 71° - -
1787866150 37.22° C 44% 1009.6 hPa 0 mm 0.45 m/s, 71° - -
1787866083 37.22° C 44% 1009.6 hPa 0 mm 0.45 m/s, 71° - -
1787866022 37.22° C 44% 1009.6 hPa 0 mm 0.45 m/s, 71° - -
1787865963 37.22° C 44% 1009.6 hPa 0 mm 0.45 m/s, 71° - -
1787865903 37.22° C 44% 1009.8 hPa 0 mm 1.79 m/s, 86° - -
1787865843 37.22° C 44% 1009.8 hPa 0 mm 1.79 m/s, 86° - -
1787865783 37.22° C 44% 1009.8 hPa 0 mm 1.79 m/s, 86° - -
1787865722 37.22° C 44% 1009.8 hPa 0 mm 1.79 m/s, 86° - -
1787865663 37.22° C 44% 1009.8 hPa 0 mm 1.79 m/s, 86° - -
1787865602 37.22° C 44% 1009.7 hPa 0 mm 1.34 m/s, 82° - -
1787865543 37.22° C 44% 1009.7 hPa 0 mm 1.34 m/s, 82° - -
1787865483 37.22° C 44% 1009.7 hPa 0 mm 1.34 m/s, 82° - -
1787865423 37.22° C 44% 1009.7 hPa 0 mm 1.34 m/s, 82° - -
1787865363 37.22° C 44% 1009.7 hPa 0 mm 1.34 m/s, 82° - -
1787865311 36.67° C 44% 1009.8 hPa 0 mm 0.45 m/s, 52° - -
1787865243 36.67° C 44% 1009.8 hPa 0 mm 0.45 m/s, 52° - -
1787865182 36.67° C 44% 1009.8 hPa 0 mm 0.45 m/s, 52° - -
1787865123 36.67° C 44% 1009.8 hPa 0 mm 0.45 m/s, 52° - -
1787865062 36.67° C 44% 1009.8 hPa 0 mm 0.45 m/s, 52° - -
1787865003 37.22° C 44% 1009.9 hPa 0 mm 2.68 m/s, 86° - -

* Rain latest hour (hover to see other rain measurements)
** Current wind speed in m/s (hover to see current wind gust speed)